Lid_Strength_Index
-2 -1 -1 -1 -1 -1 1 -1 -1 -1 -0 -1 -1 -1 -1 0 0 2 3 1 2 0 2 4 4 6 7 8 7 8 11 12 12 12 11 8 7 6 4 5 5 4 4 3 2
-1 -1 -1 -2 -0 -1 -0 2 -1 -1 -1 -1 -1 -0 -1 -0 2 3 -0 -1 -1 -0 4 5 7 6 8 9 9 8 10 10 10 11 11 10 8 6 5 6 6 5 4 2 2
-1 -1 -1 -1 -1 0 0 0 1 -1 -1 -1 -0 -0 -0 1 4 3 -1 -2 -2 -1 4 4 5 6 8 8 9 8 9 9 11 10 10 11 11 6 6 7 5 5 5 4 3
-1 -1 -1 -1 -1 -1 0 1 2 -1 -1 -1 -0 0 1 2 10 3 -1 -2 -2 0 3 6 7 8 8 10 9 10 9 9 10 11 11 11 11 10 6 5 4 3 3 4 4
-1 -1 -1 -1 -1 -1 -0 0 1 2 -1 -1 -1 0 4 5 5 1 -0 -2 0 2 4 6 8 8 9 8 9 9 10 10 11 11 11 11 11 10 8 5 4 3 4 4 4
-1 -1 -1 -1 -1 -1 -1 -0 1 2 -1 -1 -1 0 4 8 2 -0 1 0 2 3 4 4 7 7 8 8 9 8 9 10 10 10 10 11 11 11 8 4 4 4 4 4 4
-1 -1 -1 -1 -1 -1 -1 0 1 1 -1 -1 -1 2 4 5 1 -0 0 2 2 3 4 4 5 7 8 9 8 9 10 9 10 11 11 11 12 12 9 5 5 5 4 4 4
-1 -1 -1 -1 -1 -1 -1 0 1 2 -1 -1 -0 2 6 2 -0 1 1 2 1 2 3 3 4 7 8 7 8 11 10 12 8 11 12 10 12 10 9 7 5 5 5 5 4
-1 -1 -1 -1 -1 -1 -0 0 1 1 -1 -1 2 3 8 2 3 1 1 3 2 2 2 3 4 8 7 10 11 11 14 12 10 11 11 11 11 11 10 8 6 5 5 5 4
-1 -1 -1 -1 -1 -1 0 1 1 1 0 0 2 6 7 6 3 2 1 2 4 3 4 5 7 9 9 11 16 14 13 11 11 11 12 11 12 10 11 9 7 5 5 5 5
-1 -1 -1 -1 -1 -1 0 2 6 6 4 7 7 6 6 3 1 3 2 3 4 5 10 7 11 13 11 10 9 10 11 12 11 12 12 11 11 10 9 11 9 7 5 5 5
-1 -1 -1 -1 -1 -1 0 5 6 3 9 5 4 6 4 3 7 4 3 6 7 10 8 10 13 9 8 8 10 10 12 12 10 10 12 11 12 10 9 10 10 9 6 5 4
-1 -1 -1 -1 0 0 3 4 3 1 9 8 6 7 5 4 7 6 4 6 8 10 10 12 10 8 9 11 12 12 13 12 12 13 13 12 11 9 8 10 11 10 7 5 5
-1 -1 -1 -0 3 2 4 2 1 2 12 12 10 8 6 5 8 3 3 6 8 11 9 10 8 9 11 11 11 14 10 10 11 12 16 11 17 10 8 8 11 11 10 7 4
-1 -0 -0 0 3 4 2 1 2 5 20 12 10 7 7 8 7 7 3 6 10 10 10 12 10 11 12 11 10 12 10 11 12 12 15 12 16 11 11 11 10 10 10 9 6
-0 -0 0 2 3 4 1 1 4 14 20 14 11 11 10 8 8 8 8 6 5 9 8 10 9 8 9 9 8 10 12 12 13 14 18 14 15 13 10 10 9 9 9 9 8
-0 0 1 2 7 3 1 5 14 18 13 16 13 11 11 11 11 10 10 11 12 15 15 11 11 10 9 11 10 11 13 18 19 19 19 15 14 12 9 9 8 8 8 8 8
1 1 3 4 3 4 3 10 18 15 14 12 12 12 13 11 11 11 11 13 10 10 14 16 17 12 10 9 12 12 13 17 21 20 16 17 16 12 10 10 9 10 9 8 8
2 3 5 4 4 5 8 15 16 13 12 13 12 14 15 12 12 12 12 12 10 9 13 15 15 10 11 10 10 12 15 11 15 19 17 15 13 11 10 10 11 10 10 9 9
4 5 6 3 4 7 10 14 14 11 10 11 14 12 15 14 13 13 13 9 11 10 8 11 16 12 11 9 10 10 9 15 14 20 20 14 15 14 12 11 10 10 10 9 8
4 8 6 4 5 10 14 15 13 10 9 11 12 13 12 14 12 13 12 11 9 11 9 10 12 15 12 13 12 12 12 12 12 14 17 18 14 11 10 10 10 10 10 10 9
7 12 6 4 13 11 13 13 11 10 9 11 11 11 12 11 12 12 13 12 9 10 11 11 13 15 14 11 10 9 11 11 15 17 14 16 15 11 11 11 11 11 10 9 9
11 11 7 9 14 14 12 12 10 11 11 11 13 10 10 12 14 13 13 10 9 9 10 11 13 17 16 13 12 12 11 10 10 12 16 17 14 8 10 11 10 10 10 9 9
10 13 12 12 12 12 14 13 12 9 12 12 12 10 11 12 11 14 13 12 9 8 9 9 13 13 16 14 13 14 12 10 11 16 14 14 12 10 10 10 9 9 10 9 9
10 13 13 14 13 11 10 11 13 14 12 11 12 11 11 13 14 13 13 12 10 9 9 10 14 13 13 12 11 12 12 11 13 12 14 12 12 10 8 8 8 7 8 9 9
11 12 12 13 13 12 11 12 13 12 12 13 12 11 11 13 12 14 12 12 12 10 10 11 13 13 15 13 12 13 11 11 11 11 11 11 11 8 7 7 7 7 8 9 9
9 10 10 12 13 13 12 11 12 11 12 11 11 11 12 11 9 10 9 9 10 10 10 12 13 13 16 14 13 15 13 11 11 10 10 13 10 8 9 9 8 8 8 8 7